INTELSAT 30 (IS-30) (40271 NORAD) Tracking and Keplerian Element Data

This shows tracking and keplerian element data for the satellite.

Feedback or suggestion? Click here.




ElementValue
Catalog40271
NameINTELSAT 30 (IS-30)
Epoch Orbit1380
Epoch Day201.47959338
Epoch Year2018
RAAN59.8291
Inclination0.0172
Eccentricity0.0002103
Argument of Perigee29.9
Mean Anonmoly286.077
Mean Motion1.0027704
Decay Rate-1.68E-06
L11 40271U 14062A 18201.47959338 -.00000168 00000-0 00000+0 0 9992
L22 40271 0.0172 59.8291 0002103 29.9000 286.0770 1.00277040 13809

Live tracking and technical data element details for INTELSAT 30 (IS-30) (NORAD 40271). INTELSAT 30 (IS-30) can be tracked NOW for your location showing map with azimuth and elevation plus other details from your city location.

Track the satellite on the map from your city or location and see movement details for azimuth, elevation, latitude, longitude, range, height, and movement on the map or in text.







IsCatalogInMostPopularTable: catalog: 40271, numindb: 88
Update: records affected: 1



GetName: 40271 INTELSAT 30 (IS-30)

Hit Count: updated at: Sat, 21 Jul 2018 07:54:28 GMT